Temperature
18 18 18 18 18 18 18 18 18 18 18 18 18 18 18 18 18 18 18 18 18 18 18 18 18 18 17 17 17 17 17 17 17 17 17 17 16 16 16 16 16 16 16
18 18 18 18 18 18 18 18 18 18 18 18 18 18 18 18 18 18 18 18 18 18 18 18 18 18 18 17 17 17 17 17 17 17 17 17 17 16 16 16 16 16 16
18 18 18 18 18 18 18 18 18 18 18 18 18 18 18 18 18 18 18 18 18 18 18 18 18 18 18 17 17 17 17 17 17 17 17 17 17 16 16 16 16 16 16
18 18 18 18 18 18 18 18 18 18 18 18 18 18 18 18 18 18 18 18 18 18 18 18 18 18 18 17 17 17 17 17 17 17 17 17 17 16 16 16 16 16 16
18 18 18 18 18 18 18 18 18 18 18 18 18 18 18 18 18 18 18 18 18 18 18 18 18 18 17 17 17 17 17 17 17 17 17 17 16 16 16 16 16 16 16
18 18 18 18 18 18 18 18 18 18 18 18 18 18 18 18 18 18 18 18 18 18 18 18 18 18 17 17 17 17 17 17 17 17 17 17 17 16 16 16 16 16 16
18 18 18 18 18 18 18 18 18 18 18 18 18 18 18 18 18 18 18 18 18 18 18 18 18 18 17 17 17 17 17 17 17 17 17 17 17 16 16 16 16 16 16
18 18 18 18 18 18 18 18 18 18 18 18 18 18 18 18 18 18 18 18 18 18 18 18 18 17 17 17 17 17 17 17 17 17 17 17 16 16 16 16 16 16 16
18 18 18 18 18 18 18 18 18 18 18 18 18 18 18 18 18 18 18 18 18 18 18 17 17 17 17 17 17 17 17 17 17 17 17 17 16 16 16 16 16 16 15
18 18 18 18 18 18 18 18 18 18 18 18 18 18 18 18 18 17 18 18 18 18 18 17 17 17 17 17 17 17 17 17 17 17 17 16 16 16 16 16 16 15 15
18 18 18 18 18 18 18 18 18 18 18 18 18 18 18 18 18 17 17 17 17 17 17 17 17 17 17 17 17 17 17 17 17 16 16 16 16 16 16 15 15 15 15
18 18 18 18 18 18 18 18 18 18 18 18 18 17 17 17 17 17 17 17 17 17 17 17 17 17 16 16 16 16 16 16 16 16 16 16 16 16 16 15 15 15 15
18 18 18 18 18 18 18 17 17 17 17 17 17 17 17 17 17 17 17 17 17 17 17 16 16 16 16 16 16 16 16 16 16 16 16 15 15 15 15 15 15 15 15
18 18 18 18 18 18 17 17 17 17 17 17 17 17 17 17 17 17 17 16 16 16 16 16 16 16 16 16 16 16 16 15 15 15 15 15 15 15 15 15 15 14 14
18 18 18 18 17 17 17 17 17 17 17 17 17 17 17 16 16 16 16 16 16 15 16 16 16 16 16 15 15 15 15 15 15 15 15 15 14 14 14 14 14 14 14
18 18 17 17 17 17 17 17 17 17 16 16 16 16 16 16 16 16 16 16 16 16 15 15 15 15 15 15 15 15 15 14 14 14 14 14 14 14 14 14 14 13 13
18 17 17 17 17 17 17 17 16 16 16 16 16 16 16 16 16 16 16 16 15 15 15 15 15 15 15 14 14 14 14 14 14 14 14 14 14 14 13 13 13 13 13
17 17 17 17 17 17 17 16 16 16 16 16 16 16 16 15 16 16 16 15 15 15 15 15 14 14 14 14 14 14 13 13 13 13 13 13 13 13 13 13 13 13 12
17 17 17 17 16 16 16 16 16 16 16 15 15 15 15 15 15 15 15 15 15 15 15 14 14 14 14 14 13 13 13 13 13 13 13 13 13 13 12 12 12 12 12
17 17 17 16 16 16 16 16 16 16 15 15 15 15 15 15 15 15 15 15 14 14 14 14 14 14 13 13 13 13 12 12 12 12 12 12 12 12 12 12 11 11 11
17 16 16 16 16 16 16 16 15 15 15 15 15 15 15 15 14 14 14 14 14 14 14 13 13 13 13 13 13 12 12 12 12 12 12 11 11 11 11 11 11 11 11
16 16 16 16 16 16 15 15 15 15 15 15 14 14 14 14 14 14 14 14 14 14 13 13 13 13 13 13 13 12 12 12 11 11 11 11 11 11 11 11 11 10 10
16 16 16 16 16 16 15 15 15 15 14 14 14 14 14 14 14 14 14 13 13 13 13 13 13 13 13 12 12 12 12 12 12 11 11 11 11 10 10 10 10 10 10
16 16 15 15 15 15 15 15 15 14 14 14 14 14 14 13 13 13 13 13 13 13 13 13 13 13 12 12 12 12 12 12 12 11 11 11 11 10 10 10 10 10 10
15 15 15 15 15 15 15 15 14 14 14 13 13 13 13 13 13 13 13 13 12 12 12 12 12 12 12 12 12 12 11 11 11 11 11 11 10 10 10 10 10 10 10
15 15 15 15 15 15 15 14 14 14 13 13 13 13 13 13 13 13 12 12 12 12 12 12 12 12 12 11 11 11 11 11 11 11 10 10 10 10 10 10 10 10 9
Wind_Speed
2 2 2 2 3 4 4 2 2 2 2 3 3 3 2 2 3 7 11 16 16 15 14 14 14 13 12 11 11 11 10 10 10 10 10 10 9 9 9 8 8 8 8
2 2 2 0 1 2 2 2 2 1 1 1 2 2 2 3 4 8 11 13 15 15 15 15 14 14 13 13 12 12 11 11 11 11 11 11 11 10 10 9 9 9 9
3 2 2 2 1 2 3 2 2 2 2 2 3 3 2 2 3 5 9 11 13 14 15 15 15 15 14 14 14 13 13 13 13 12 12 12 12 12 11 11 10 10 10
3 2 2 2 2 3 2 2 1 1 1 1 2 2 2 3 4 5 6 9 11 12 14 15 15 16 15 15 14 14 14 14 14 14 14 14 13 13 13 13 12 12 12
4 3 2 1 3 1 1 2 2 1 1 2 2 2 2 3 3 4 4 6 7 10 11 15 17 16 16 15 15 14 14 14 14 14 14 14 13 14 14 14 14 14 14
3 2 2 2 2 1 1 0 1 1 1 2 3 2 2 2 2 3 4 4 6 8 10 11 13 14 16 15 15 14 14 14 14 14 14 14 14 14 15 15 15 15 16
3 2 1 2 2 1 1 2 1 2 3 2 1 1 2 2 2 2 2 2 3 5 6 8 9 9 10 15 15 14 14 14 14 14 15 15 15 14 14 15 14 14 14
3 3 2 2 2 1 2 2 1 2 3 2 1 1 1 1 2 3 3 2 2 2 3 5 6 7 7 9 12 15 15 14 14 13 13 13 13 14 15 14 14 14 14
3 1 3 3 2 2 2 3 2 3 3 3 2 1 1 2 1 1 1 2 2 2 2 2 4 5 5 5 6 9 11 12 13 13 12 12 12 12 13 14 14 14 13
3 2 3 3 2 2 2 3 3 3 3 3 2 2 3 1 1 1 1 0 1 2 1 2 2 4 4 5 5 6 8 8 8 9 10 10 10 11 11 12 13 13 13
2 2 2 2 2 2 2 2 1 2 2 3 2 2 3 2 3 3 2 2 1 0 1 1 1 2 3 4 5 5 7 8 7 7 7 7 7 8 9 10 11 11 11
1 1 1 2 2 2 2 2 2 2 2 3 3 2 2 2 2 2 2 2 2 1 1 1 1 2 3 4 5 6 8 8 7 6 5 5 5 5 6 7 8 8 7
1 0 0 0 1 2 2 2 2 3 3 3 3 2 2 2 2 2 2 2 2 2 1 1 1 2 2 4 5 6 7 8 8 7 5 4 3 3 4 4 4 4 4
1 1 1 0 1 1 2 2 2 3 3 3 3 2 2 2 2 2 2 2 2 2 2 2 1 2 3 5 6 6 6 6 6 5 5 4 3 2 2 2 3 3 3
1 2 1 1 0 1 2 2 1 2 1 2 2 2 2 2 2 1 2 2 2 2 3 2 1 2 3 5 7 5 5 5 6 6 6 5 4 3 3 3 3 3 2
3 2 2 2 1 1 1 1 1 1 1 1 1 1 1 1 2 1 1 1 1 2 2 1 1 1 3 4 6 5 6 8 7 7 7 6 5 5 4 4 4 4 3
2 2 2 2 2 2 2 1 1 1 1 2 2 2 2 2 2 2 1 1 1 2 2 1 1 1 2 3 4 4 6 6 5 7 7 7 6 6 5 5 5 5 5
1 2 2 2 2 2 2 2 2 3 2 3 3 3 3 3 2 2 2 1 1 1 2 3 2 1 2 2 3 3 4 5 5 6 8 7 7 7 7 7 7 6 6
2 2 2 2 2 2 3 3 2 3 3 3 3 3 3 3 3 3 2 1 1 1 1 2 2 1 1 2 2 2 3 3 4 7 8 8 8 9 9 9 9 8 8
2 2 2 1 2 3 3 3 3 3 3 3 4 4 4 4 3 3 2 2 1 0 1 1 2 2 2 2 2 2 2 2 2 5 6 7 7 8 8 8 8 8 7
2 2 2 2 2 2 3 3 2 2 2 3 3 4 4 5 6 4 3 3 2 1 0 0 1 1 1 2 2 2 2 2 2 2 3 4 5 5 5 6 6 6 7
2 2 2 2 3 3 4 5 3 2 2 3 3 3 3 4 6 6 5 5 3 1 1 1 1 1 1 1 1 2 2 2 2 2 3 3 5 4 5 6 7 8 7
2 2 2 3 3 4 5 6 5 2 3 3 3 2 2 3 4 3 3 3 3 3 2 1 1 0 0 1 2 2 2 2 2 3 3 2 3 3 5 8 11 11 9
2 2 2 3 3 4 5 5 5 1 3 3 3 3 3 3 4 4 1 2 3 3 2 1 1 1 1 1 1 2 2 2 1 1 2 2 2 2 3 7 12 12 12
2 2 3 3 3 3 4 5 5 1 2 3 3 4 3 3 6 6 2 2 2 2 4 5 4 3 3 2 2 1 1 1 1 1 1 0 1 2 2 3 9 13 13
2 3 3 3 4 4 4 5 4 0 2 2 3 3 5 5 5 5 2 1 1 2 1 2 2 2 1 1 1 1 1 0 0 1 1 0 0 1 1 2 4 9 10
Wind_Direction
122 118 108 159 182 168 176 183 189 156 175 200 189 198 200 177 149 139 153 166 170 175 181 184 187 190 191 193 193 195 195 196 196 194 194 197 200 202 202 201 200 202 205
103 114 126 253 215 161 158 170 174 159 196 197 185 201 196 180 172 156 156 171 178 182 187 190 193 196 197 199 200 201 201 203 202 202 202 204 207 209 210 209 209 209 211
141 149 167 210 220 206 172 190 199 189 192 194 193 206 187 186 180 171 169 173 178 187 192 195 199 201 202 203 204 205 205 208 208 210 211 212 213 214 215 216 217 216 216
166 185 198 196 221 210 179 181 225 185 198 210 207 214 177 176 186 193 188 183 179 185 193 198 199 202 205 206 208 208 209 213 214 214 216 217 218 219 220 220 221 221 220
185 196 225 205 227 204 182 208 164 206 220 225 228 212 201 193 186 205 194 188 188 180 181 196 203 205 207 209 211 212 213 215 215 216 218 220 220 222 222 224 226 227 225
197 214 210 210 243 199 193 69 134 247 255 247 256 219 218 199 187 209 209 191 186 185 182 184 194 208 212 213 213 215 217 218 218 219 220 221 222 223 225 227 229 230 229
197 193 256 192 228 214 214 207 201 248 256 249 284 265 244 220 199 208 219 201 180 180 172 173 181 189 200 214 213 214 218 219 220 221 221 223 224 225 227 228 228 230 228
208 206 198 238 222 213 234 238 218 249 263 241 236 266 275 262 235 220 196 204 182 156 161 171 183 179 184 187 204 212 217 219 220 221 221 221 223 225 227 228 227 226 227
223 233 187 232 236 213 206 215 231 239 252 260 234 227 234 244 295 294 210 174 154 158 162 152 169 163 180 167 177 201 212 219 222 223 221 222 223 224 227 227 227 228 230
228 220 218 226 235 246 219 215 212 238 244 260 255 245 239 214 208 270 296 109 156 167 177 192 162 142 160 158 157 164 188 198 208 216 220 222 225 225 227 225 225 228 230
231 242 220 219 219 237 245 251 235 223 243 253 258 256 253 238 220 204 235 261 255 148 208 216 138 134 152 143 138 151 170 182 193 203 205 210 217 224 226 228 229 233 232
205 253 218 220 225 242 235 233 236 228 242 261 269 273 265 254 250 226 225 229 236 254 234 203 173 118 131 142 149 150 162 171 180 189 198 206 215 218 221 226 228 230 230
160 210 294 181 251 259 247 242 225 245 242 247 248 260 264 262 256 238 210 231 244 258 244 184 168 123 134 125 122 143 153 158 170 183 193 199 199 205 205 209 214 218 221
358 95 96 162 244 279 271 253 250 245 243 245 253 254 269 269 271 247 216 215 240 250 243 229 175 138 103 109 119 129 124 144 155 160 163 169 171 177 181 175 172 171 174
6 67 78 80 48 325 311 308 279 282 275 270 288 284 275 283 280 260 229 215 219 245 258 234 185 149 126 115 126 130 124 147 151 148 145 146 144 143 143 137 129 126 130
18 29 37 45 52 48 12 319 291 302 320 321 297 315 306 305 317 322 267 256 234 219 245 284 209 157 138 123 127 125 128 135 135 139 137 137 136 140 137 128 121 120 117
43 39 34 25 23 36 31 3 346 20 15 1 349 357 340 321 321 310 300 264 213 191 216 246 201 142 145 136 131 134 130 127 131 144 141 135 128 122 118 119 117 114 111
87 69 55 39 21 29 24 17 11 24 19 14 10 17 1 356 358 341 337 313 254 214 202 212 212 179 161 147 148 160 139 136 132 140 140 129 122 118 117 118 116 112 107
98 93 77 63 36 33 31 23 36 35 32 28 25 28 18 16 8 358 355 342 316 279 196 193 203 165 154 152 145 151 131 134 134 129 130 126 128 127 123 120 118 113 111
119 109 91 65 63 59 38 27 42 45 46 41 35 36 33 25 13 3 5 9 2 327 239 215 189 155 134 143 146 160 154 157 130 127 125 127 130 131 130 128 127 126 124
117 101 93 72 59 65 29 25 32 56 59 56 46 48 51 45 38 31 24 17 11 18 310 240 143 123 124 138 181 191 169 139 111 123 135 140 140 142 147 150 149 147 144
113 110 99 77 58 41 28 32 32 50 50 60 59 47 62 55 44 50 46 38 34 32 48 70 98 117 147 167 184 159 155 152 166 169 168 174 164 165 170 168 170 168 167
119 105 95 87 77 55 44 39 28 49 59 54 55 42 37 41 39 31 42 50 40 27 40 74 68 333 200 190 174 179 176 177 183 174 174 182 172 173 175 174 175 179 185
123 125 112 95 85 62 46 39 14 79 85 72 57 47 50 40 23 10 24 60 54 37 34 65 74 31 28 34 189 199 193 160 138 149 155 172 180 184 173 168 182 187 191
138 139 121 109 103 80 48 36 12 77 104 91 79 56 47 42 13 10 27 51 54 46 54 62 83 97 69 42 29 77 115 124 127 140 121 189 189 169 161 170 188 194 195
137 128 113 110 109 96 63 42 11 9 97 97 99 85 59 45 17 18 18 22 18 359 43 56 60 71 75 74 83 83 69 69 62 103 145 175 218 143 174 181 181 191 201
Height
1543 1544 1544 1545 1545 1546 1547 1548 1548 1549 1550 1550 1551 1552 1552 1553 1554 1554 1554 1556 1557 1558 1559 1560 1561 1562 1563 1565 1566 1567 1568 1569 1571 1572 1573 1574 1575 1575 1576 1577 1578 1579 1580
1543 1543 1544 1545 1546 1547 1547 1548 1548 1549 1550 1550 1551 1552 1552 1553 1554 1554 1554 1555 1556 1557 1558 1559 1560 1561 1562 1563 1564 1566 1567 1568 1569 1570 1571 1572 1573 1574 1575 1576 1577 1577 1578
1543 1543 1544 1545 1546 1546 1547 1548 1548 1549 1550 1550 1551 1551 1552 1553 1553 1554 1554 1555 1555 1556 1557 1558 1559 1560 1561 1562 1563 1564 1565 1566 1567 1568 1569 1570 1571 1572 1573 1574 1575 1575 1576
1542 1543 1544 1545 1546 1546 1547 1547 1548 1549 1549 1550 1550 1551 1551 1552 1553 1553 1554 1554 1554 1555 1556 1557 1558 1559 1559 1560 1561 1562 1563 1564 1565 1566 1567 1568 1568 1569 1570 1571 1572 1573 1574
1542 1543 1543 1544 1545 1546 1546 1547 1548 1548 1549 1549 1549 1550 1550 1551 1551 1552 1552 1553 1554 1554 1554 1555 1556 1557 1557 1558 1559 1560 1561 1562 1563 1563 1564 1565 1566 1566 1567 1568 1569 1569 1570
1541 1542 1543 1543 1544 1545 1546 1546 1547 1547 1548 1548 1549 1549 1549 1549 1549 1550 1551 1551 1551 1552 1552 1553 1553 1554 1555 1556 1557 1557 1558 1559 1560 1560 1561 1562 1562 1563 1564 1564 1565 1566 1567
1540 1541 1542 1542 1543 1544 1544 1545 1545 1546 1547 1547 1547 1547 1547 1548 1547 1547 1548 1549 1549 1550 1550 1551 1552 1552 1552 1553 1554 1554 1555 1556 1557 1557 1558 1558 1559 1560 1560 1561 1562 1562 1563
1539 1540 1540 1541 1542 1542 1543 1543 1544 1544 1545 1546 1546 1546 1546 1547 1546 1546 1546 1547 1548 1548 1548 1549 1550 1550 1550 1550 1551 1552 1552 1553 1554 1554 1554 1555 1556 1556 1557 1557 1558 1559 1559
1537 1538 1538 1539 1540 1540 1541 1542 1542 1543 1543 1544 1545 1545 1545 1545 1545 1545 1544 1545 1545 1544 1546 1546 1547 1547 1547 1547 1548 1548 1549 1550 1550 1551 1551 1552 1552 1552 1553 1553 1554 1555 1556
1536 1536 1537 1537 1538 1538 1539 1540 1540 1541 1541 1542 1542 1543 1543 1543 1543 1543 1543 1543 1543 1543 1544 1545 1545 1545 1545 1544 1545 1545 1545 1546 1546 1547 1548 1548 1548 1549 1549 1550 1550 1551 1552
1535 1535 1535 1535 1536 1536 1537 1538 1538 1538 1539 1539 1540 1540 1540 1541 1541 1541 1541 1541 1541 1541 1541 1542 1543 1543 1542 1542 1542 1542 1542 1543 1543 1544 1544 1545 1545 1545 1546 1546 1547 1547 1548
1533 1533 1534 1534 1534 1534 1535 1535 1536 1536 1536 1537 1537 1538 1538 1538 1538 1538 1538 1538 1538 1539 1539 1540 1540 1541 1540 1540 1540 1540 1540 1540 1540 1541 1541 1541 1542 1542 1542 1543 1543 1544 1544
1532 1532 1532 1532 1532 1533 1533 1533 1534 1534 1534 1534 1535 1535 1535 1535 1535 1535 1536 1536 1536 1537 1537 1537 1537 1538 1538 1538 1538 1538 1537 1537 1538 1538 1538 1538 1539 1539 1539 1539 1539 1540 1540
1532 1531 1531 1530 1531 1531 1532 1532 1532 1532 1532 1532 1533 1533 1533 1533 1533 1533 1533 1533 1533 1534 1535 1535 1535 1535 1535 1535 1535 1535 1535 1535 1536 1536 1536 1536 1536 1536 1536 1536 1536 1536 1537
1531 1530 1530 1529 1529 1530 1530 1530 1530 1530 1531 1530 1530 1530 1530 1530 1530 1530 1530 1531 1532 1531 1532 1532 1532 1532 1532 1532 1532 1533 1533 1533 1533 1533 1533 1533 1533 1533 1533 1533 1533 1533 1533
1530 1529 1529 1529 1529 1529 1529 1529 1529 1529 1529 1528 1528 1528 1528 1527 1527 1527 1527 1527 1528 1528 1529 1530 1530 1530 1530 1530 1530 1530 1531 1531 1531 1531 1531 1531 1531 1531 1531 1531 1531 1531 1531
1528 1528 1528 1528 1528 1528 1528 1528 1527 1527 1527 1527 1527 1526 1526 1526 1525 1524 1524 1524 1524 1525 1525 1526 1527 1528 1528 1528 1528 1528 1528 1528 1529 1528 1529 1529 1529 1529 1529 1528 1528 1528 1528
1527 1527 1527 1527 1527 1527 1527 1526 1526 1526 1526 1526 1525 1525 1524 1524 1523 1523 1522 1522 1522 1522 1523 1523 1525 1525 1525 1526 1526 1526 1527 1526 1527 1527 1526 1527 1527 1527 1526 1526 1526 1526 1526
1526 1526 1526 1526 1526 1526 1526 1525 1525 1525 1524 1524 1524 1523 1523 1522 1522 1521 1520 1520 1520 1520 1520 1521 1522 1523 1523 1524 1524 1524 1524 1524 1524 1525 1525 1525 1525 1525 1525 1524 1524 1525 1525
1526 1526 1525 1525 1525 1525 1525 1524 1524 1523 1523 1523 1523 1522 1522 1521 1520 1519 1519 1518 1518 1518 1518 1519 1520 1521 1521 1521 1522 1522 1522 1522 1523 1523 1523 1523 1524 1524 1524 1523 1523 1524 1524
1525 1525 1525 1524 1524 1524 1524 1523 1523 1522 1522 1522 1521 1521 1521 1520 1519 1519 1518 1517 1516 1516 1517 1518 1518 1519 1519 1519 1520 1520 1521 1521 1521 1522 1522 1522 1522 1522 1522 1522 1523 1523 1522
1524 1523 1523 1523 1523 1523 1523 1522 1522 1521 1521 1520 1520 1520 1520 1519 1518 1518 1517 1516 1516 1516 1516 1516 1517 1517 1518 1518 1518 1519 1519 1519 1520 1521 1520 1520 1520 1521 1521 1521 1521 1521 1521
1523 1523 1522 1522 1522 1521 1521 1521 1521 1520 1520 1520 1519 1519 1519 1518 1518 1517 1516 1516 1516 1516 1516 1516 1516 1516 1517 1517 1517 1517 1517 1517 1518 1518 1519 1519 1519 1519 1520 1520 1520 1520 1520
1521 1521 1521 1521 1520 1520 1520 1520 1520 1520 1519 1519 1519 1518 1518 1517 1517 1516 1516 1515 1515 1515 1515 1515 1515 1515 1516 1516 1516 1517 1516 1517 1517 1517 1518 1518 1518 1518 1519 1519 1519 1519 1519
1520 1520 1520 1519 1519 1519 1519 1519 1519 1519 1519 1518 1518 1518 1517 1516 1516 1516 1515 1515 1515 1514 1514 1514 1514 1515 1515 1515 1515 1515 1515 1515 1515 1516 1516 1517 1517 1517 1517 1517 1517 1517 1517
1518 1518 1518 1518 1518 1518 1518 1518 1518 1518 1518 1518 1517 1517 1516 1516 1515 1515 1515 1514 1514 1514 1514 1514 1514 1514 1514 1514 1514 1514 1514 1514 1514 1515 1515 1515 1515 1515 1515 1515 1515 1515 1515